Date String (YYYY-MM-DD hh:mm:ss) UTC,Instrument flags,Ambient pressure (hPa),Sample flow (lpm),Bypass flow (lpm),Sample temperature (°C),Ambient temperature (°C),ASC tube jacket temperature (°C),LED temperature (°C),Box temperature (°C),Sample RH (%),Span deviation,Mass concentration (μg/m³),Mass concentration (μg/m³),Mass concentration (μg/m³)
DateTimeUTC,F1_M11,P_M11,Q1_M11,Q2_M11,T1_M11,T2_M11,T3_M11,T4_M11,T5_M11,U1_M11,ZSPAN_M11,X0_M11,X2_M11,X1_M11
2022-01-18 19:00:00,,0819.3,5.01,0.00,22.5,21.6,00.0,31.5,24.1,03.5,0000.0,0000.85,0000.39,0000.33
2022-01-18 19:01:00,,0819.2,4.99,0.00,22.5,21.6,00.0,31.5,24.1,03.6,0000.0,0000.79,0000.37,0000.33
2022-01-18 19:02:00,,0819.2,5.01,0.00,22.5,21.7,00.0,31.5,24.2,03.7,0000.0,0000.77,0000.37,0000.33
2022-01-18 19:03:00,,0819.2,4.99,0.00,22.5,21.7,00.0,31.5,24.2,03.9,0000.0,0000.56,0000.37,0000.33
2022-01-18 19:04:00,,0819.2,5.01,0.00,22.5,21.7,00.0,31.5,24.2,03.8,0000.0,0000.55,0000.37,0000.33
2022-01-18 19:05:00,,0819.1,4.98,0.00,22.5,21.7,00.0,31.5,24.1,03.6,0000.0,0000.57,0000.37,0000.34
2022-01-18 19:06:00,,0819.1,5.01,0.00,22.5,21.7,00.0,31.5,24.1,03.5,0000.0,0000.59,0000.38,0000.34
2022-01-18 19:07:00,,0819.1,5.00,0.00,22.5,21.6,00.0,31.5,24.1,03.6,0000.0,0000.62,0000.37,0000.33
2022-01-18 19:08:00,,0819.0,5.00,0.00,22.5,21.6,00.0,31.5,24.0,03.6,0000.0,0000.72,0000.38,0000.33
2022-01-18 19:09:00,,0819.0,5.00,0.00,22.4,21.6,00.0,31.5,24.0,03.7,0000.0,0000.68,0000.38,0000.33
2022-01-18 19:10:00,,0819.0,4.99,0.00,22.4,21.5,00.0,31.5,24.1,03.6,0000.0,0000.67,0000.38,0000.33
2022-01-18 19:11:00,,0819.0,5.02,0.00,22.4,21.5,00.0,31.5,24.1,03.7,0000.0,0001.26,0000.40,0000.32
2022-01-18 19:12:00,,0819.0,4.99,0.00,22.4,21.5,00.0,31.5,24.1,03.6,0000.0,0001.75,0000.42,0000.33
2022-01-18 19:13:00,,0819.0,5.00,0.00,22.4,21.5,00.0,31.5,24.1,03.3,0000.0,0001.76,0000.43,0000.34
2022-01-18 19:14:00,,0819.0,5.01,0.00,22.4,21.5,00.0,31.5,24.1,03.4,0000.0,0002.74,0000.43,0000.34
2022-01-18 19:15:00,,0819.1,4.98,0.00,22.4,21.5,00.0,31.5,24.1,03.5,0000.0,0003.10,0000.45,0000.34
2022-01-18 19:16:00,,0819.1,5.02,0.00,22.4,21.5,00.0,31.5,24.1,03.5,0000.0,0003.11,0000.45,0000.34
2022-01-18 19:17:00,,0819.1,4.98,0.00,22.4,21.5,00.0,31.5,24.1,03.4,0000.0,0003.08,0000.44,0000.34
2022-01-18 19:18:00,,0819.2,5.01,0.00,22.4,21.5,00.0,31.5,24.1,03.7,0000.0,0003.04,0000.44,0000.33
2022-01-18 19:19:00,,0819.3,5.00,0.00,22.4,21.5,00.0,31.5,24.1,03.6,0000.0,0002.94,0000.43,0000.33
2022-01-18 19:20:00,,0819.3,4.99,0.00,22.4,21.6,00.0,31.5,24.1,03.8,0000.0,0002.87,0000.42,0000.33
2022-01-18 19:21:00,,0819.2,5.01,0.00,22.4,21.6,00.0,31.5,24.1,03.9,0000.0,0002.89,0000.43,0000.34
2022-01-18 19:22:00,,0819.2,5.01,0.00,22.3,21.6,00.0,31.5,24.1,03.8,0000.0,0002.34,0000.43,0000.35
2022-01-18 19:23:00,,0819.2,5.00,0.00,22.4,21.6,00.0,31.5,24.1,03.8,0000.0,0001.86,0000.42,0000.35
2022-01-18 19:24:00,,0819.2,5.02,0.00,22.4,21.6,00.0,31.5,24.1,03.3,0000.0,0001.88,0000.42,0000.34
2022-01-18 19:25:00,,0819.2,4.99,0.00,22.4,21.6,00.0,31.5,24.1,03.1,0000.0,0001.11,0000.42,0000.34
2022-01-18 19:26:00,,0819.2,5.00,0.00,22.4,21.6,00.0,31.4,24.1,03.1,0000.0,0000.67,0000.41,0000.34
2022-01-18 19:27:00,,0819.2,5.00,0.00,22.4,21.6,00.0,31.4,24.1,03.4,0000.0,0000.64,0000.41,0000.34
2022-01-18 19:28:00,,0819.1,5.00,0.00,22.4,21.6,00.0,31.4,24.1,03.3,0000.0,0000.64,0000.41,0000.34
2022-01-18 19:29:00,,0819.1,4.99,0.00,22.4,21.7,00.0,31.4,24.2,03.2,0000.0,0000.63,0000.41,0000.34
2022-01-18 19:30:00,,0819.0,4.99,0.00,22.4,21.7,00.0,31.4,24.2,03.4,0000.0,0000.65,0000.42,0000.34
2022-01-18 19:31:00,,0819.1,5.01,0.00,22.4,21.7,00.0,31.4,24.1,03.2,0000.0,0000.69,0000.44,0000.34
2022-01-18 19:32:00,,0819.0,5.01,0.00,22.4,21.7,00.0,31.4,24.1,03.3,0000.0,0000.68,0000.43,0000.33
2022-01-18 19:33:00,,0818.9,4.98,0.00,22.4,21.7,00.0,31.4,24.1,03.4,0000.0,0000.76,0000.43,0000.32
2022-01-18 19:34:00,,0818.9,5.01,0.00,22.4,21.6,00.0,31.4,24.0,03.4,0000.0,0000.76,0000.42,0000.32
2022-01-18 19:35:00,,0818.9,4.99,0.00,22.4,21.6,00.0,31.4,24.0,03.3,0000.0,0000.73,0000.41,0000.31
2022-01-18 19:36:00,,0818.9,4.99,0.00,22.4,21.6,00.0,31.4,24.1,03.3,0000.0,0000.74,0000.42,0000.31
2022-01-18 19:37:00,,0818.9,5.01,0.00,22.4,21.6,00.0,31.4,24.1,03.5,0000.0,0000.66,0000.41,0000.31
2022-01-18 19:38:00,,0818.9,4.99,0.00,22.3,21.6,00.0,31.4,24.1,03.3,0000.0,0000.63,0000.40,0000.31
2022-01-18 19:39:00,,0818.8,5.01,0.00,22.3,21.6,00.0,31.4,24.0,03.4,0000.0,0000.67,0000.41,0000.31
2022-01-18 19:40:00,,0818.8,5.00,0.00,22.3,21.6,00.0,31.4,24.0,03.4,0000.0,0000.70,0000.43,0000.31
2022-01-18 19:41:00,,0818.8,4.99,0.00,22.3,21.6,00.0,31.4,24.0,03.5,0000.0,0001.10,0000.42,0000.31
2022-01-18 19:42:00,,0818.9,5.01,0.00,22.3,21.5,00.0,31.4,23.9,03.5,0000.0,0002.31,0000.39,0000.31
2022-01-18 19:43:00,,0818.9,5.00,0.00,22.3,21.5,00.0,31.4,23.9,03.5,0000.0,0002.32,0000.39,0000.31
2022-01-18 19:44:00,,0818.9,4.99,0.00,22.3,21.5,00.0,31.4,23.9,03.3,0000.0,0002.21,0000.37,0000.31
2022-01-18 19:45:00,,0818.9,5.01,0.00,22.2,21.5,00.0,31.4,23.9,03.3,0000.0,0002.15,0000.36,0000.31
2022-01-18 19:46:00,,0819.0,4.99,0.00,22.2,21.5,00.0,31.4,23.9,03.7,0000.0,0002.15,0000.37,0000.31
2022-01-18 19:47:00,,0818.9,5.00,0.00,22.2,21.5,00.0,31.4,23.9,03.5,0000.0,0002.13,0000.36,0000.31
2022-01-18 19:48:00,,0818.9,5.00,0.00,22.2,21.5,00.0,31.4,24.0,03.5,0000.0,0002.14,0000.37,0000.31
2022-01-18 19:49:00,,0819.0,5.01,0.00,22.2,21.5,00.0,31.4,23.9,03.4,0000.0,0002.17,0000.38,0000.32
2022-01-18 19:50:00,,0818.9,5.01,0.00,22.2,21.5,00.0,31.3,23.9,03.5,0000.0,0002.13,0000.37,0000.32
2022-01-18 19:51:00,,0819.0,5.00,0.00,22.3,21.5,00.0,31.3,24.0,03.3,0000.0,0002.10,0000.35,0000.32
2022-01-18 19:52:00,,0819.0,4.99,0.00,22.3,21.5,00.0,31.3,24.0,03.5,0000.0,0001.71,0000.35,0000.32
2022-01-18 19:53:00,,0818.9,5.00,0.00,22.3,21.5,00.0,31.3,24.0,03.6,0000.0,0000.43,0000.34,0000.32
2022-01-18 19:54:00,,0819.0,5.01,0.00,22.3,21.6,00.0,31.3,24.1,03.6,0000.0,0000.43,0000.34,0000.32
2022-01-18 19:55:00,,0818.9,4.99,0.00,22.3,21.6,00.0,31.3,24.0,03.6,0000.0,0000.43,0000.34,0000.31
2022-01-18 19:56:00,,0818.9,4.99,0.00,22.3,21.6,00.0,31.3,24.1,03.7,0000.0,0000.46,0000.35,0000.31
2022-01-18 19:57:00,,0818.9,5.00,0.00,22.3,21.6,00.0,31.3,24.1,03.6,0000.0,0000.46,0000.35,0000.31
2022-01-18 19:58:00,,0819.0,5.01,0.00,22.3,21.6,00.0,31.4,24.1,03.7,0000.0,0000.45,0000.35,0000.31
2022-01-18 19:59:00,,0818.9,5.00,0.00,22.4,21.6,00.0,31.4,24.1,03.8,0000.0,0000.43,0000.34,0000.31
